Cloud_Cover
0 0 0 0 0 0 0 0 0 0 0 0 0 0 0 0 1 89 3 2 1 76 100 100 100 100 100 100 100 100 100 100 100 100 100 100 100 100 100 100 100 100 100 97 100 100 100 95 100
0 0 0 0 0 0 0 0 0 0 0 0 0 0 0 0 0 0 0 1 4 36 100 100 100 100 100 100 100 100 100 100 100 100 100 100 100 100 100 100 100 100 100 100 100 100 100 100 100
0 0 0 0 0 0 0 0 0 0 0 0 0 0 0 0 0 0 0 0 0 0 95 100 100 100 100 100 100 100 100 100 100 100 100 100 100 100 100 100 100 100 96 100 100 100 100 100 100
0 0 0 0 0 0 0 0 0 0 0 0 0 0 0 0 0 0 0 0 0 0 80 100 100 100 100 100 100 100 100 100 100 100 100 100 100 100 100 100 100 100 100 100 100 100 100 100 100
0 0 0 0 0 0 0 0 0 0 0 0 0 0 0 0 0 0 0 0 0 0 5 100 100 100 100 100 100 100 100 100 100 100 100 100 100 100 100 100 100 100 100 100 100 100 100 100 100
0 0 0 0 0 0 0 0 0 0 0 0 0 0 0 0 0 0 0 0 0 0 0 100 100 100 100 100 100 100 100 100 100 100 100 100 100 100 100 100 100 100 100 100 100 100 100 100 100
0 0 0 0 0 0 0 0 0 0 0 0 0 0 0 0 0 0 0 0 0 0 0 12 100 100 100 100 100 100 100 100 100 100 100 100 100 100 100 100 100 100 100 100 100 100 100 100 100
1 0 0 0 0 0 0 0 0 0 0 0 0 0 0 0 0 0 0 0 0 0 0 0 100 100 100 100 100 100 100 100 100 100 100 100 100 100 100 100 100 100 100 100 100 100 100 100 100
2 1 2 0 4 0 0 0 0 0 0 0 0 0 0 0 0 0 0 0 0 0 0 0 40 100 100 100 100 100 100 100 100 100 100 100 100 100 100 100 100 100 100 100 100 100 100 100 100
4 79 92 22 5 3 0 0 0 0 0 0 0 0 0 0 0 0 0 0 0 0 0 0 0 100 100 100 100 100 100 100 100 100 100 100 100 100 100 100 100 100 100 100 100 100 100 100 100
27 100 82 20 59 3 0 0 0 0 0 0 0 0 0 0 0 0 0 0 0 0 0 0 0 5 100 100 100 100 100 100 100 100 100 100 100 100 100 100 100 100 98 81 100 100 100 100 100
99 100 86 7 33 5 0 0 0 0 0 0 0 0 0 0 0 0 0 0 0 0 0 0 0 0 29 100 100 100 100 100 100 100 100 100 100 100 100 100 100 100 74 60 100 100 100 100 100
100 100 71 64 36 5 4 0 0 0 0 0 0 0 0 0 0 0 0 0 0 0 0 0 0 0 0 16 100 100 100 100 100 100 100 100 100 100 100 100 100 100 96 68 100 100 100 100 100
27 85 36 72 66 5 5 5 5 1 0 0 2 0 0 0 0 0 0 0 0 0 0 0 0 0 0 16 100 100 100 100 100 100 100 100 100 100 100 100 100 100 92 100 100 100 100 100 100
5 39 65 100 96 23 5 5 5 3 0 5 16 0 0 0 0 0 0 0 0 0 0 0 0 0 0 0 53 100 100 100 100 100 100 100 100 100 100 100 100 100 100 100 100 100 100 100 100
24 70 75 100 58 66 72 5 5 5 3 0 0 0 0 0 0 0 0 0 0 0 0 0 0 0 0 0 29 100 100 100 100 100 100 100 100 100 100 100 100 100 100 100 100 100 100 100 100
52 21 87 85 36 19 59 19 5 5 5 4 3 0 0 0 0 0 0 0 0 0 0 0 0 0 0 0 29 61 100 100 100 100 100 100 100 100 100 100 100 100 96 99 100 100 100 100 100
98 72 32 19 7 5 6 5 5 5 5 5 5 5 4 5 0 0 0 0 0 0 0 0 0 0 0 1 29 52 100 100 100 100 100 100 100 100 100 100 100 100 98 100 100 100 100 100 100
79 82 38 13 7 14 5 37 5 5 7 72 5 5 5 5 0 0 0 0 0 0 0 0 0 0 0 10 100 99 100 100 100 100 100 100 100 100 100 100 100 100 100 100 100 100 100 100 100
69 68 18 14 45 55 14 78 5 5 11 5 5 5 5 5 0 0 0 0 0 0 0 0 0 0 0 7 59 100 100 100 100 100 100 100 100 100 100 100 100 100 100 100 100 100 100 100 100
92 61 55 33 24 26 56 8 5 12 82 8 34 5 5 5 0 0 0 0 0 0 0 0 0 0 0 0 8 52 100 100 100 100 100 100 100 100 100 100 100 100 100 100 100 100 100 100 100
94 75 100 100 90 35 69 24 30 77 5 97 18 5 5 2 0 0 0 0 0 0 0 0 0 0 0 0 0 1 48 100 100 100 100 100 100 100 100 100 100 100 100 100 100 100 100 100 100
95 98 28 49 97 5 5 12 92 62 8 94 38 30 5 1 0 0 0 0 0 0 0 0 0 2 1 5 2 0 0 60 99 100 100 100 100 100 100 100 100 100 100 100 100 100 100 100 100
6 21 15 60 8 5 5 7 29 32 86 50 45 70 5 0 0 0 0 0 0 0 0 0 0 0 4 5 5 5 5 5 18 99 100 100 100 100 100 100 100 100 100 100 100 100 100 100 100
20 5 5 7 8 5 71 32 62 12 81 61 6 5 2 0 0 0 0 0 0 0 0 1 4 1 1 85 98 58 54 56 58 86 100 100 100 100 100 100 100 100 100 100 100 100 100 100 100
100 9 5 5 5 16 89 5 55 7 39 6 5 4 1 0 0 0 0 0 0 0 0 4 84 77 5 28 98 100 100 100 97 99 100 100 100 100 100 100 100 100 100 100 100 100 100 100 100
95 14 5 23 86 14 30 5 5 5 12 5 5 3 1 0 0 0 0 0 0 0 4 5 5 36 49 10 23 100 100 100 100 100 100 100 100 100 100 100 100 100 100 100 100 100 100 100 100
56 5 5 5 5 5 5 5 0 5 5 15 5 4 1 0 0 0 0 0 0 0 0 4 5 5 5 58 83 100 74 100 100 100 100 100 100 100 100 100 100 100 100 100 100 100 100 100 100
38 14 5 25 7 24 4 5 3 5 48 5 5 1 1 0 0 0 0 2 5 2 1 5 5 5 5 5 76 100 100 100 100 100 100 100 100 100 100 100 100 100 100 100 99 100 100 100 100
73 16 7 7 99 100 5 5 6 5 46 5 5 0 0 0 1 0 0 5 5 5 5 5 5 5 5 5 2 15 99 100 100 100 100 100 100 100 100 82 86 100 100 100 100 100 100 100 100